MPEC 2006-W92 : 2006 WC30

The following Minor Planet Electronic Circular may be linked-to from your own Web pages, but must not otherwise be redistributed electronically.


Read MPEC 2006-W91 Read MPEC 2006-W93


M.P.E.C. 2006-W92                                Issued 2006 Nov. 26, 03:13 UT

     The Minor Planet Electronic Circulars contain information on unusual
         minor planets and routine data on comets.  They are published
   on behalf of Commission 20 of the International Astronomical Union by the
          Minor Planet Center, Smithsonian Astrophysical Observatory,
                          Cambridge, MA 02138, U.S.A.

             Prepared using the Tamkin Foundation Computer Network

                              MPC@CFA.HARVARD.EDU
          URL http://cfa-www.harvard.edu/iau/mpc.html  ISSN 1523-6714

                                   2006 WC30

Observations:
     K06W30C* C2006 11 25.31346 04 22 05.44 -20 46 31.8          17.6 V EW092703
     K06W30C  C2006 11 25.32113 04 22 24.34 -20 46 30.3          17.2 V EW092703
     K06W30C  C2006 11 25.32877 04 22 43.28 -20 46 28.4          17.4 V EW092703
     K06W30C  C2006 11 25.33641 04 23 02.25 -20 46 25.6          17.6 V EW092703
     K06W30C  C2006 11 25.36963 04 24 25.41 -20 46 10.8          17.6 V EW092703
     K06W30C  C2006 11 25.36987 04 24 26.02 -20 46 10.5          17.9 V EW092703
     K06W30C  C2006 11 25.37011 04 24 26.64 -20 46 09.6          17.8 V EW092703
     K06W30C  C2006 11 25.37036 04 24 27.25 -20 46 09.1          17.5 V EW092703
     K06W30C  C2006 11 25.37190 04 24 31.14 -20 46 08.6          17.4 V EW092703
     K06W30C  C2006 11 25.37784 04 24 46.18 -20 46 05.0          17.5 V EW092703
     K06W30C  C2006 11 25.38383 04 25 01.38 -20 46 00.9          17.1 V EW092703
     K06W30C  C2006 11 25.38981 04 25 16.53 -20 45 56.9          17.9 V EW092703
     K06W30C  C2006 11 25.98050 04 55 05.50 -20 25 15.1          16.6 R EW092I77
     K06W30C  C2006 11 25.98115 04 55 07.63 -20 25 14.0          16.5 R EW092I77
     K06W30C  C2006 11 25.98275 04 55 12.78 -20 25 10.8          16.5 R EW092I77
     K06W30C  C2006 11 26.05157 04 58 31.69 -20 30 07.4                 EW092J95
     K06W30C  C2006 11 26.05314 04 58 36.67 -20 30 02.6                 EW092J95
     K06W30C  C2006 11 26.05470 04 58 41.73 -20 29 58.5          17.1 R EW092J95

Observer details:
703 Catalina Sky Survey.  Observer R. A. Kowalski.  Measurers E. C. Beshore,
    E. J. Christensen, G. J. Garradd, A. R. Gibbs, A. D. Grauer, R. E. Hill,
    R. A. Kowalski, S. M. Larson, R. H. McNaught.  0.68-m Schmidt + CCD.
I77 CEAMIG-REA Observatory, Belo Horizonte.  Observers C. Jacques, E. Pimentel.
    Measurer C. Jacques.  0.30-m f/3.0 Schmidt-Cassegrain + CCD.
J95 Great Shefford.  Observer P. Birtwhistle.  0.40-m f/6.0 Schmidt-Cassegrain
    + CCD.

Orbital elements:
2006 WC30                                                Earth MOID = 0.0023 AU
Epoch 2006 Sept. 22.0 TT = JDT 2454000.5                MPC
M 340.72633              (2000.0)            P               Q
n   0.23417405     Peri.   13.32009     +0.07454204     -0.99382336
a   2.6068149      Node    72.45201     +0.90684610     +0.03326298
e   0.6268175      Incl.    4.94637     +0.41481759     +0.10587115
P   4.21           H   24.2           G   0.15           U   6
Residuals in seconds of arc
061125 703  0.4+  0.3+    061125 703  0.1+  0.2+    061125 I77  0.7-  0.2-
061125 703  0.1-  0.2+    061125 703  0.2-  0.5+    061125 I77  0.2+  0.4-
061125 703  0.3+  0.0     061125 703  0.2-  0.1+    061125 I77  1.2+  0.2-
061125 703  0.3+  0.3+    061125 703  0.1+  0.0     061126 J95  0.4+  0.2+
061125 703  0.2-  0.7-    061125 703  0.2+  0.0     061126 J95  0.6-  0.3+
061125 703  0.1-  0.6-    061125 703  0.7-  0.2-    061126 J95  0.0   0.4-

Ephemeris:
2006 WC30                a,e,i = 2.61, 0.63, 5                   q = 0.9728
Date    TT    R. A. (2000) Decl.     Delta      r     Elong.  Phase     V
2006 11 21    02 41.41   -18 50.9    0.0421   1.020   138.3    40.1    18.9
2006 11 22    02 54.71   -19 20.3    0.0370   1.016   138.4    40.2    18.7
2006 11 23    03 12.25   -19 51.4    0.0322   1.012   138.7    40.1    18.3
2006 11 24    03 36.03   -20 21.3    0.0276   1.008   138.9    40.1    18.0
2006 11 25    04 09.13   -20 40.5    0.0233   1.005   138.6    40.5    17.6
2006 11 26    04 55.68   -20 25.5    0.0197   1.001   137.0    42.3    17.3
2006 11 27    05 59.01   -18 48.4    0.0170   0.998   132.1    47.2    17.1
2006 11 28    07 15.41   -14 59.0    0.0159   0.995   122.7    56.5    17.2
2006 11 29    08 30.62   -09 27.5    0.0166   0.992   110.9    68.2    17.7
2006 11 30    09 31.57   -04 03.4    0.0189   0.990   100.4    78.5    18.3
2006 12 01    10 16.03   +00 08.6    0.0223   0.987    92.7    86.0    18.9
2006 12 02    10 47.71   +03 08.7    0.0264   0.985    87.4    91.0    19.5
2006 12 03    11 10.64   +05 16.3    0.0309   0.983    84.0    94.2    20.0
2006 12 04    11 27.72   +06 48.5    0.0356   0.981    81.7    96.2    20.4
2006 12 05    11 40.83   +07 57.0    0.0405   0.979    80.2    97.5    20.7
2006 12 06    11 51.16   +08 49.3    0.0456   0.978    79.3    98.1    21.0
2006 12 07    11 59.50   +09 30.1    0.0506   0.977    78.7    98.4    21.2
2006 12 08    12 06.37   +10 02.6    0.0558   0.975    78.4    98.4    21.4
2006 12 09    12 12.14   +10 29.0    0.0609   0.974    78.3    98.2    21.6
2006 12 10    12 17.05   +10 50.7    0.0661   0.974    78.4    97.8    21.8
2006 12 11    12 21.29   +11 08.8    0.0713   0.973    78.6    97.3    21.9

2006 12 13    12 28.27   +11 37.0    0.0816   0.973    79.2    96.0    22.1
2006 12 15    12 33.80   +11 57.7    0.0919   0.973    80.2    94.5    22.3
2006 12 17    12 38.31   +12 13.4    0.102    0.974    81.3    92.8    22.5
2006 12 19    12 42.08   +12 25.6    0.112    0.976    82.5    91.0    22.6
2006 12 21    12 45.27   +12 35.3    0.122    0.978    83.8    89.0    22.7

Gareth V. Williams           (C) Copyright 2006 MPC           M.P.E.C. 2006-W92

Read MPEC 2006-W91 Read MPEC 2006-W93


Our Web policy. Index to the CBAT/MPC/ICQ pages.

MPC

Valid HTML 4.01!